Regional Weather Roundup
Issued by NWS Upton, NY

Current Version | Previous Version | Text Only | Print | Product List | Glossary On
Versions: 1 2 3 4 5 6 7 8 9 10 11 12 13 14 15 16 17 18 19 20 21 22 23 24 25 26 27 28 29 30 31 32 33 34 35 36 37 38 39 40 41 42 43 44 45 46 47 48 49 50
000
ASUS41 KOKX 280308
RWROKX

REGIONAL WEATHER ROUNDUP
NATIONAL WEATHER SERVICE NEW YORK NY
1000 PM EST MON FEB 27 2017

NOTE: "FAIR" INDICATES FEW OR NO CLOUDS BELOW 12,000 FEET WITH NO
SIGNIFICANT WEATHER AND/OR OBSTRUCTIONS TO VISIBILITY.

NYZ071-072-176-178-NJZ106-104-280400-
NEW YORK CITY METRO AREA

CITY           SKY/WX    TMP DP  RH WIND       PRES   REMARKS
Central Park   PTCLDY    49  30  48 W3        30.43R
Wall St Helipt PTCLDY    48  32  53 W6        30.42R
LaGuardia APRT PTCLDY    50  30  46 SW6       30.40R
Kennedy INTL   CLOUDY    45  39  79 SW9       30.42R
Breezy Point     N/A     43 N/A N/A SW6         N/A
Newark/Liberty MOCLDY    46  31  55 SW3       30.41R
Teterboro      PTCLDY    45  31  58 SW5       30.40R
$$

NYZ177-179-078>081-280400-
LONG ISLAND NEW YORK

CITY           SKY/WX    TMP DP  RH WIND       PRES   REMARKS
Jones Beach      N/A     43 N/A N/A SW8         N/A
Matinecock PT  NOT AVBL
Farmingdale    PTCLDY    43  38  82 SW5       30.41S
MacArthur/ISP  MOCLDY    42  39  89 SW6       30.40S
Shirley        CLEAR     43  39  86 SW7       30.41S
Westhampton    PTCLDY    43  37  79 SW7       30.42S
Southampton      N/A     43  41  93 W5        30.38S
Bridgehampton  NOT AVBL
East Hampton     N/A     42  37  84 SW7       30.40S
Montauk          N/A     45  38  76 SW7       30.41S
$$

NYZ052-065-067-280400-
HUDSON VALLEY

CITY           SKY/WX    TMP DP  RH WIND       PRES   REMARKS
White Plains   CLEAR     41  28  60 CALM      30.38R
Newburgh       PTCLDY    43  28  56 W6        30.38R
Montgomery     CLEAR     34  28  79 CALM      30.36R
Poughkeepsie   CLEAR     35  25  66 CALM      30.37R
Albany         PTCLDY    35  19  52 SW7       30.33S WCI  29
$$

NJZ001-105-106-008-010-013-015-019>022-104-280400-
NEW JERSEY

CITY           SKY/WX    TMP DP  RH WIND       PRES   REMARKS
Newark/Liberty MOCLDY    46  31  55 SW3       30.41R
Teterboro      PTCLDY    45  31  58 SW5       30.40R
Caldwell       PTCLDY    41  29  62 CALM      30.41R
Somerville     PTCLDY    37  31  78 CALM      30.39R
Linden         NOT AVBL
Sussex         MOCLDY    40  31  70 CALM      30.38S
Andover          N/A     36  32  85 SW3       30.38R
Trenton        PTCLDY    44  31  60 CALM      30.40R
Millville      CLOUDY    50  38  63 VRB3      30.41R
Atlantic City  CLOUDY    50  33  52 S9        30.42R
Wrightstown    CLOUDY    44  32  62 S3        30.38S
Toms River     MOCLDY    39  34  82 CALM      30.42R
Belmar         CLOUDY    46  33  60 S3        30.41F
$$

PAZ047>061-062-071-280400-
EASTERN PENNSYLVANIA

CITY           SKY/WX    TMP DP  RH WIND       PRES   REMARKS
Philadelphia   CLOUDY    48  31  51 CALM      30.41R
Allentown      MOCLDY    37  31  78 N3        30.39R
Scranton       PTCLDY    43  31  62 CALM      30.34S
$$

CTZ002-004>006-009-010-012-RIZ004-006-007-MAZ004-011-015-280400-
SOUTHERN NEW ENGLAND
 IN CT

CITY           SKY/WX    TMP DP  RH WIND       PRES   REMARKS
Bradley INTL   PTCLDY    40  29  64 SW6       30.37S
Hartford       CLEAR     41  33  73 S5        30.37S
Danbury        CLEAR     32  27  81 SW7       30.38S WCI  26
Wtrbury/Oxford CLEAR     39  28  65 CALM      30.38S
Bridgeport     CLEAR     43  35  73 SW6       30.39R
Meriden        CLEAR     37  31  78 CALM      30.38S
New Haven      CLEAR     42  35  76 SW3       30.39S
Chester          N/A     37  34  87 CALM      30.38S
Groton         CLEAR     42  35  76 W3        30.39S
Wilimantic     CLEAR     37  30  75 CALM      30.39S

 IN RI

CITY           SKY/WX    TMP DP  RH WIND       PRES   REMARKS
Providence     CLEAR     40  33  76 SW5       30.39F
Block Island   CLEAR     43  39  86 SW13      30.40S
Westerly       CLEAR     42  34  73 SW3       30.41R
 IN MA

CITY           SKY/WX    TMP DP  RH WIND       PRES   REMARKS
Boston         CLEAR     43  28  55 SW12      30.37S
Worcester      CLEAR     35  24  64 SW6       30.33F WCI  30
Westfield      CLEAR     37  25  61 CALM      30.35S
Provincetown   CLEAR     40  36  86 SW10      30.40F WCI  33
Nantucket      CLEAR     42  37  82 SW12      30.42F
$$

ANZ330-335-338-340-345-350-353-355-280400-
COASTAL MARINE OBSERVATIONS


STATION/POSITION TIME  SKY/WX   TEMP    WIND        PRES    VSBY  WAVE
                                AIR SEA DIR/SP/G                  HT/PER
                 (UTC)          (F)     (DEG/KT/KT) (MB)    (MI)  (FT/S)
NY HARB ENTRANCE 0150            45 43  210/  8/  8 1029.8          3/ 4
20 S FIRE ISLAND 0150            45 43  220/ 10/ 10 1029.9          3/ 4
GREAT SOUTH BAY  NOT AVBL
23 SSW MONTAUK P 0150            47 46              1030.1          5/ 6
15 E BARNEGAT LI 0230               43                N/A           2/ 9
HUDSON CANYON    0150               47              1030.8          3/ 8
KINGS POINT      0236            46 41              1029.1
EXECUTION ROCKS  NOT AVBL
CENTRAL LI SOUND 0230            42     210/ 10/ 12   N/A           1/ 4
EASTERN LI SOUND NOT AVBL
ROBBINS REEF     0248            48     210/  7/  9 1029.8
$$


>>>>>>>>>>>>>>>>>>>>>>>>>>>> KEY <<<<<<<<<<<<<<<<<<<<<<<<<<<
>                                                          <
>     SKY/WX - Sky Condition/Present Weather               <
>     TMP    - Temperature in Fahrenheit                   <
>     DP     - Dew Point in Fahrenheit                     <
>     RH     - Relative Humidity in Percent                <
>     WIND   - Direction (from) and Speed in MPH           <
>     PRES   - Mean Sea Level Pressure (inches of Hg)      <
>     WCI    - Wind Chill Index                            <
>     VSB    - VISIBILITY IN MILES                         <
>     HX     - HEAT INDEX                                  <
>     TC     - TEMPERATURE IN CELSIUS                      <
>     VRB    - VARIABLE WIND DIRECTION                     <
>                                                          <
>>>>>>>>>>>>>>>>>>>>>>>>>>>> KEY <<<<<<<<<<<<<<<<<<<<<<<<<<<



USA.gov is the U.S. government's official web portal to all federal, state and local government web resources and services.